Wind_Speed
19 19 18 17 17 17 17 16 15 14 14 13 12 12 12 12 11 10 10 9 9 8 7 7 6 6 5 4 4 4 3 3 2 2 2 2 3 3 4 5 6 6 6
21 21 20 19 18 18 18 18 17 16 15 15 14 14 14 13 13 12 11 10 10 9 9 8 8 7 6 6 5 4 4 4 3 3 3 3 3 4 5 6 6 6 7
22 22 22 22 21 20 20 19 18 17 17 16 16 15 15 15 14 14 13 12 11 10 10 9 9 8 7 7 6 5 5 5 5 4 4 4 4 5 5 6 7 7 8
24 24 23 23 23 23 22 21 20 19 18 18 17 17 17 16 15 15 14 13 13 12 11 10 10 9 9 8 8 7 6 6 6 6 5 6 6 6 6 7 7 8 8
26 26 25 25 24 24 24 23 22 21 20 19 19 19 18 17 16 16 16 15 14 13 13 12 11 11 10 10 10 9 8 7 7 7 7 7 7 7 8 8 9 9 9
27 27 27 26 26 26 26 25 24 23 22 21 21 20 20 19 18 17 17 16 15 15 14 13 13 12 11 11 11 11 10 9 8 8 8 8 8 8 9 9 10 10 10
29 28 28 27 27 27 27 27 26 25 23 22 22 22 22 21 20 19 18 18 17 16 15 14 14 13 13 12 12 12 12 11 10 9 9 9 9 9 10 10 10 11 12
30 29 27 28 28 28 28 28 27 26 25 24 24 24 23 23 21 21 20 19 18 17 16 16 15 15 14 13 13 13 13 12 12 11 11 11 11 11 11 12 12 13 13
30 30 29 28 28 28 28 28 28 27 27 26 25 25 24 24 23 22 21 21 20 19 18 17 17 16 16 15 14 14 13 13 13 13 13 13 13 13 13 13 14 14 14
31 30 30 29 28 28 28 29 29 28 28 27 26 26 26 25 24 24 23 22 21 20 19 18 18 17 17 16 16 15 15 14 14 14 14 14 14 14 14 15 15 15 16
32 31 30 30 29 28 29 29 29 29 28 27 28 28 26 26 25 25 24 24 23 21 21 20 20 19 18 18 17 17 16 16 16 16 16 16 16 16 16 17 17 17 17
32 31 31 31 30 29 30 30 30 29 28 28 28 28 28 27 26 26 26 25 24 23 22 22 21 21 20 19 19 19 18 17 18 17 17 17 17 17 18 18 18 18 18
33 32 31 30 31 31 30 31 31 31 30 29 28 28 28 27 27 27 27 27 26 25 24 23 23 23 22 21 20 19 19 19 19 19 19 19 19 19 19 19 19 19 19
35 34 32 32 31 32 31 31 32 31 30 30 30 29 29 28 28 28 28 28 27 27 26 25 25 24 24 23 22 22 21 21 21 21 21 20 20 20 20 21 20 20 21
36 35 35 34 33 33 33 32 31 31 31 31 30 30 29 29 29 28 29 29 29 28 27 27 26 25 26 25 24 23 22 22 22 22 22 22 22 22 22 22 22 23 23
37 36 36 36 35 34 34 33 32 31 31 32 32 31 31 30 29 29 29 29 29 29 29 28 28 27 27 27 26 25 24 24 24 24 24 24 24 24 24 24 24 24 25
37 37 37 37 37 37 35 35 33 32 31 31 32 32 32 31 31 30 30 29 29 30 30 29 29 29 28 28 27 27 27 26 26 26 26 26 26 26 25 25 25 26 26
38 38 38 38 38 38 38 36 35 34 32 32 32 31 31 31 32 32 31 31 30 30 31 31 30 30 30 29 29 29 28 28 27 27 27 27 27 27 27 27 27 27 27
36 37 38 38 38 38 39 38 37 35 35 33 33 31 32 32 33 33 33 32 31 31 31 32 32 32 32 32 31 31 31 30 29 29 29 28 28 29 29 29 29 29 29
35 37 38 38 38 39 39 39 38 37 36 35 35 33 33 33 33 33 34 34 32 32 31 31 32 34 34 34 33 33 33 32 31 31 31 30 30 30 31 31 31 31 30
34 36 38 39 39 39 40 39 38 38 38 37 36 34 33 33 34 34 34 34 33 33 33 33 32 34 35 35 35 35 34 34 33 33 33 33 33 33 32 32 32 32 32
34 35 37 37 38 37 38 39 39 38 39 37 36 36 35 34 34 35 35 36 36 36 35 35 35 34 35 36 36 36 37 36 36 35 36 35 35 35 34 34 33 33 34
34 35 35 35 37 38 38 39 39 39 39 38 37 38 37 37 37 37 37 37 38 37 37 37 37 36 36 37 37 37 37 37 37 37 36 36 36 36 36 36 36 36 36
34 36 35 35 36 36 37 38 39 40 39 39 39 39 38 37 37 37 36 37 38 38 38 38 38 38 38 38 38 38 39 39 39 39 38 39 38 38 38 39 39 38 38
33 36 36 35 36 36 37 38 39 40 39 38 39 40 39 39 38 38 37 37 37 38 39 39 40 40 39 40 40 40 40 39 40 41 40 40 40 40 40 41 41 41 40
32 34 35 35 35 37 38 39 39 40 40 39 38 38 39 39 39 39 38 38 38 38 40 40 40 41 41 41 41 41 41 41 41 41 41 41 41 42 42 42 42 42 42
Wind_Direction
243 241 240 241 242 240 238 237 236 235 233 233 233 231 231 231 229 226 222 218 214 215 213 209 210 212 215 212 211 214 216 226 241 253 277 300 313 321 321 320 322 325 327
245 243 241 240 241 241 239 239 237 236 235 234 235 234 232 232 231 229 225 222 219 220 221 220 219 220 223 224 223 224 228 232 240 253 271 286 301 311 314 315 318 320 322
247 246 244 243 242 242 242 241 238 238 238 238 237 237 234 233 232 231 228 227 226 225 225 227 227 227 229 229 229 230 233 238 244 252 263 275 289 301 308 309 311 314 317
248 247 245 244 243 243 243 240 239 240 240 239 238 237 236 234 234 232 231 230 231 230 230 231 233 233 233 234 234 235 237 241 247 253 262 271 281 293 301 305 309 312 316
248 247 246 245 244 244 244 243 243 242 241 240 238 237 237 236 235 233 233 233 233 234 233 234 236 236 235 237 239 240 241 244 250 257 264 271 280 287 294 301 305 308 313
249 247 246 245 245 245 245 246 244 242 241 241 239 238 237 236 236 235 235 236 235 235 235 236 237 237 238 240 242 243 243 245 251 259 266 274 280 286 292 298 301 304 308
250 248 245 244 245 245 245 245 243 242 241 240 239 238 237 236 235 237 236 235 237 237 236 238 239 239 240 242 244 245 246 248 253 259 267 274 280 286 291 296 299 300 303
250 249 246 245 244 245 245 244 242 241 241 241 239 238 239 237 236 237 236 235 238 239 239 238 239 239 240 243 246 247 248 251 256 261 268 273 277 283 288 292 295 296 298
248 247 246 246 245 244 244 243 242 241 241 241 240 239 240 239 237 236 236 236 238 239 241 239 238 240 242 245 248 249 250 254 258 263 269 273 277 282 285 288 291 294 295
247 246 245 245 245 244 242 241 240 241 241 241 240 240 240 239 238 237 236 236 237 238 240 242 240 241 243 246 250 251 253 257 261 264 269 273 278 282 285 288 291 293 293
246 245 244 244 244 244 241 240 240 241 241 241 242 241 240 239 240 239 239 238 237 238 240 243 242 241 244 247 251 253 255 258 262 266 269 272 277 282 285 287 289 291 291
245 245 245 246 244 243 241 239 240 242 242 242 243 242 241 240 240 240 240 239 239 240 241 243 243 242 245 249 253 256 256 259 263 267 271 273 276 280 283 286 288 288 289
244 244 244 245 244 242 240 239 240 242 242 243 243 243 242 241 242 241 240 240 240 240 241 243 244 245 247 249 254 257 258 262 264 267 270 273 276 279 282 285 287 288 288
242 243 242 243 243 241 240 240 240 241 243 244 244 244 243 243 243 242 241 240 240 240 241 243 246 248 250 251 253 257 260 262 265 268 270 273 276 280 282 284 285 287 287
242 241 241 242 242 241 239 240 241 242 244 245 244 244 243 243 244 244 243 242 242 241 242 244 246 249 251 253 254 256 260 262 266 268 270 273 275 278 281 283 284 285 287
241 240 240 241 240 240 239 239 239 241 244 244 244 244 244 243 244 245 245 244 242 242 243 245 247 249 251 253 255 256 258 262 265 267 270 272 275 277 280 282 284 285 287
241 239 238 239 238 239 239 238 237 240 242 244 243 243 243 243 243 244 246 246 244 244 245 246 248 250 251 253 254 256 258 261 264 268 270 272 274 277 280 282 284 285 286
240 238 237 237 237 237 238 238 237 239 242 244 243 243 244 244 245 245 245 247 248 248 248 248 250 251 252 253 254 256 258 261 264 267 270 272 274 277 279 281 283 285 286
239 236 237 236 235 235 236 238 239 240 242 244 245 245 247 247 247 247 246 249 250 251 251 251 251 251 252 253 255 256 258 261 264 266 269 272 274 276 279 281 283 283 284
239 236 236 237 236 236 236 236 238 241 243 245 246 246 248 248 249 250 248 249 251 251 252 255 254 252 252 253 255 258 259 261 263 265 267 270 273 276 278 280 282 283 284
240 236 235 236 237 237 237 238 239 241 242 246 247 246 249 249 249 251 250 249 252 252 253 255 256 256 254 254 256 258 260 261 263 265 266 270 273 275 278 280 281 282 283
239 238 237 237 237 237 239 238 239 240 241 245 248 248 251 250 249 249 251 250 252 253 254 256 257 258 256 255 256 258 260 261 263 266 267 270 273 275 277 279 280 281 282
239 237 238 238 238 238 238 239 240 241 242 244 248 248 249 250 249 249 250 250 251 252 253 255 256 256 257 257 257 259 260 262 265 266 269 271 273 275 278 279 281 281 281
239 237 237 239 239 239 239 240 243 244 244 245 247 247 248 249 249 249 251 250 251 252 253 255 256 256 257 258 259 261 262 263 264 266 268 271 273 276 278 280 280 281 282
243 240 240 241 241 240 241 242 244 244 245 247 249 248 248 248 250 250 251 252 253 254 255 255 256 258 259 260 261 262 263 265 265 266 268 271 273 276 278 279 279 280 281
247 242 241 241 243 242 242 244 244 245 246 248 249 249 248 250 251 251 252 253 254 255 255 256 257 258 259 260 261 262 263 265 266 267 269 271 273 275 277 279 279 279 280
Height
5840 5841 5842 5843 5844 5846 5847 5847 5848 5849 5850 5851 5852 5853 5854 5854 5855 5856 5857 5858 5859 5860 5860 5861 5862 5863 5863 5863 5864 5864 5865 5865 5865 5866 5866 5866 5866 5866 5866 5866 5866 5865 5865
5836 5837 5839 5840 5841 5842 5844 5844 5845 5846 5847 5848 5849 5850 5851 5852 5853 5854 5855 5856 5857 5858 5859 5860 5861 5861 5862 5862 5863 5863 5864 5864 5865 5865 5865 5865 5865 5865 5865 5865 5865 5864 5864
5832 5833 5835 5836 5838 5839 5840 5841 5842 5843 5844 5845 5846 5847 5848 5850 5851 5852 5853 5854 5855 5856 5857 5858 5859 5860 5860 5861 5861 5862 5862 5863 5863 5864 5864 5864 5864 5864 5864 5864 5863 5863 5862
5827 5829 5831 5832 5834 5835 5837 5838 5839 5839 5840 5841 5843 5844 5845 5847 5848 5850 5851 5852 5853 5854 5855 5856 5857 5858 5859 5859 5860 5860 5861 5861 5862 5862 5862 5863 5863 5863 5863 5862 5862 5861 5861
5822 5824 5826 5827 5829 5831 5832 5833 5835 5836 5836 5837 5839 5840 5842 5843 5845 5847 5848 5849 5851 5852 5853 5854 5855 5856 5856 5857 5858 5858 5859 5859 5860 5860 5861 5861 5861 5861 5861 5861 5860 5860 5859
5817 5819 5820 5822 5824 5826 5827 5829 5830 5831 5832 5833 5834 5836 5838 5840 5841 5843 5845 5846 5848 5849 5850 5852 5853 5853 5854 5855 5856 5856 5857 5857 5858 5858 5859 5859 5859 5859 5859 5859 5858 5858 5857
5811 5813 5815 5816 5818 5820 5822 5823 5824 5826 5827 5829 5830 5832 5834 5835 5837 5839 5841 5843 5844 5846 5847 5849 5850 5851 5852 5852 5853 5854 5854 5855 5856 5856 5856 5856 5856 5856 5856 5856 5856 5855 5855
5805 5807 5809 5810 5812 5814 5816 5817 5819 5821 5822 5824 5825 5827 5829 5831 5833 5835 5837 5839 5841 5842 5844 5845 5847 5848 5849 5849 5850 5851 5852 5852 5853 5854 5854 5854 5854 5854 5854 5854 5853 5853 5852
5799 5801 5803 5805 5807 5808 5810 5812 5813 5815 5817 5819 5820 5822 5825 5826 5828 5830 5832 5835 5837 5838 5840 5842 5843 5845 5846 5846 5847 5848 5849 5849 5850 5851 5851 5851 5851 5851 5851 5851 5850 5850 5849
5792 5794 5797 5799 5801 5802 5804 5806 5808 5810 5812 5814 5815 5817 5820 5822 5824 5826 5828 5830 5832 5834 5836 5838 5839 5841 5842 5843 5844 5845 5846 5846 5847 5847 5848 5848 5848 5848 5847 5847 5847 5846 5846
5785 5787 5790 5792 5794 5796 5798 5800 5802 5804 5806 5808 5810 5812 5815 5817 5819 5821 5823 5825 5828 5830 5832 5834 5835 5837 5838 5839 5840 5841 5842 5843 5844 5844 5844 5844 5844 5844 5844 5844 5843 5843 5842
5778 5780 5783 5786 5788 5790 5792 5794 5797 5799 5801 5803 5805 5807 5809 5811 5813 5816 5818 5820 5823 5825 5827 5829 5831 5833 5834 5836 5837 5838 5839 5839 5840 5840 5840 5840 5840 5840 5840 5840 5839 5839 5838
5770 5773 5776 5779 5781 5783 5785 5788 5791 5793 5796 5798 5800 5802 5804 5806 5808 5810 5813 5815 5818 5820 5822 5825 5827 5828 5830 5831 5832 5833 5834 5835 5836 5836 5836 5836 5836 5836 5836 5835 5835 5834 5834
5762 5766 5769 5772 5774 5777 5779 5782 5785 5787 5790 5792 5795 5796 5798 5801 5803 5805 5807 5810 5812 5815 5817 5819 5821 5824 5825 5827 5828 5829 5830 5831 5831 5832 5832 5832 5832 5831 5831 5831 5830 5830 5829
5754 5758 5761 5764 5767 5769 5772 5775 5778 5781 5784 5786 5788 5791 5793 5795 5798 5800 5802 5804 5807 5809 5812 5814 5816 5818 5820 5821 5823 5824 5825 5826 5827 5827 5827 5827 5827 5827 5826 5826 5825 5825 5824
5745 5749 5753 5756 5759 5762 5765 5768 5771 5775 5777 5780 5782 5785 5787 5789 5792 5794 5796 5798 5801 5803 5806 5808 5810 5812 5814 5816 5817 5818 5819 5820 5821 5822 5822 5822 5822 5822 5821 5821 5820 5819 5819
5736 5740 5744 5747 5751 5754 5757 5760 5764 5768 5771 5773 5775 5778 5780 5783 5786 5788 5790 5793 5795 5797 5799 5802 5804 5806 5808 5810 5811 5812 5813 5814 5815 5816 5816 5816 5816 5816 5816 5815 5815 5814 5813
5726 5730 5734 5738 5742 5745 5749 5752 5756 5760 5764 5766 5769 5771 5774 5776 5779 5781 5784 5786 5789 5791 5793 5795 5797 5800 5801 5803 5805 5806 5807 5808 5809 5810 5810 5810 5811 5810 5810 5809 5809 5808 5807
5717 5721 5725 5729 5734 5737 5741 5745 5749 5753 5756 5759 5762 5764 5767 5769 5772 5775 5777 5780 5782 5784 5787 5788 5790 5792 5794 5796 5798 5799 5801 5802 5803 5803 5804 5804 5804 5804 5804 5803 5802 5802 5801
5708 5712 5716 5721 5725 5729 5733 5737 5741 5745 5749 5752 5754 5757 5760 5762 5765 5768 5770 5773 5775 5778 5780 5781 5783 5785 5786 5788 5790 5792 5794 5795 5796 5796 5797 5797 5797 5797 5797 5796 5796 5795 5794
5700 5704 5708 5713 5717 5721 5725 5729 5733 5737 5741 5744 5746 5749 5753 5755 5758 5760 5763 5766 5768 5771 5773 5774 5776 5777 5779 5780 5783 5784 5786 5787 5788 5789 5789 5789 5790 5790 5789 5789 5788 5787 5786
5692 5696 5700 5704 5708 5713 5717 5721 5725 5729 5733 5736 5738 5742 5745 5747 5750 5753 5756 5758 5761 5763 5765 5767 5768 5769 5771 5773 5775 5776 5778 5779 5780 5781 5781 5782 5782 5782 5781 5781 5780 5779 5778
5685 5689 5692 5696 5700 5705 5708 5713 5717 5721 5724 5727 5731 5733 5736 5739 5742 5745 5747 5750 5752 5754 5756 5758 5760 5762 5763 5764 5766 5767 5769 5770 5771 5772 5772 5773 5773 5773 5773 5772 5771 5771 5770
5678 5681 5684 5688 5692 5696 5700 5704 5708 5712 5715 5719 5722 5724 5727 5730 5733 5736 5738 5740 5743 5745 5747 5749 5751 5753 5754 5756 5757 5758 5760 5761 5762 5764 5764 5764 5764 5764 5764 5763 5762 5761 5760
5670 5673 5676 5680 5684 5688 5692 5696 5699 5703 5706 5709 5712 5715 5718 5721 5724 5727 5730 5732 5734 5736 5738 5740 5742 5743 5745 5746 5748 5749 5750 5751 5752 5753 5755 5755 5755 5754 5754 5753 5752 5751 5750
5664 5666 5669 5673 5676 5680 5684 5687 5690 5694 5697 5700 5703 5706 5709 5712 5714 5717 5720 5723 5725 5727 5729 5731 5732 5734 5735 5736 5738 5739 5740 5741 5742 5743 5744 5745 5745 5744 5743 5742 5741 5740 5739